DW3979 Weather Reports


Display with metric or nautical units.
time (UTC)temp
F
wind
direction
speed
MPH
gust
MPH
rain 1hr
in
rain 24hr
in
rain mn
in
humidity
%
barometer
mb
20260510185232 90 25 1.0 3.0 0.00 0.00 0.00 8 1019.8
20260510184732 91 5 1.0 3.0 0.00 0.00 0.00 7 1019.9
20260510184231 91 49 0.0 3.0 0.00 0.00 0.00 7 1019.9
20260510183731 91 100 1.0 3.0 0.00 0.00 0.00 7 1019.9
20260510183230 90 37 1.0 3.0 0.00 0.00 0.00 7 1020.0
20260510182730 91 27 1.0 3.0 0.00 0.00 0.00 7 1020.1
20260510182229 91 24 1.0 3.0 0.00 0.00 0.00 6 1020.1
20260510181226 90 88 1.0 6.0 0.00 0.00 0.00 7 1020.2
20260510180728 89 19 1.0 3.0 0.00 0.00 0.00 7 1020.2
20260510180224 89 88 1.0 3.0 0.00 0.00 0.00 7 1020.2
20260510175723 89 54 1.0 3.0 0.00 0.00 0.00 7 1020.2
20260510174724 87 79 0.0 4.0 0.00 0.00 0.00 7 1020.2
20260510174223 88 320 1.0 4.0 0.00 0.00 0.00 7 1020.2
20260510173723 87 355 1.0 3.0 0.00 0.00 0.00 8 1020.4
20260510173222 88 17 1.0 3.0 0.00 0.00 0.00 7 1020.4
20260510172222 88 66 1.0 5.0 0.00 0.00 0.00 7 1020.2
20260510171216 87 107 1.0 3.0 0.00 0.00 0.00 8 1020.4
20260510170716 86 74 0.0 4.0 0.00 0.00 0.00 9 1020.4
20260510170212 86 330 1.0 5.0 0.00 0.00 0.00 7 1020.4
20260510165211 86 189 1.0 3.0 0.00 0.00 0.00 8 1020.4
20260510164208 85 264 1.0 3.0 0.00 0.00 0.00 8 1020.2
20260510163207 85 60 0.0 3.0 0.00 0.00 0.00 8 1020.2
20260510162706 85 346 0.0 2.0 0.00 0.00 0.00 8 1020.2
20260510162206 85 14 0.0 2.0 0.00 0.00 0.00 9 1020.2
20260510161704 84 334 0.0 2.0 0.00 0.00 0.00 9 1020.2
20260510161201 84 0 0.0 4.0 0.00 0.00 0.00 9 1020.2
20260510160701 83 0 1.0 4.0 0.00 0.00 0.00 9 1020.2
20260510155700 82 337 1.0 4.0 0.00 0.00 0.00 8 1020.1
20260510155200 82 325 1.0 4.0 0.00 0.00 0.00 9 1020.1
20260510154659 82 317 2.0 5.0 0.00 0.00 0.00 9 1020.1
20260510154159 82 335 2.0 5.0 0.00 0.00 0.00 10 1020.1
20260510153700 81 355 2.0 6.0 0.00 0.00 0.00 10 1020.1
20260510152202 81 0 1.0 4.0 0.00 0.00 0.00 8 1020.0
20260510151703 81 289 1.0 5.0 0.00 0.00 0.00 10 1020.0
20260510151154 81 312 1.0 5.0 0.00 0.00 0.00 10 1020.0
20260510150654 80 342 0.0 5.0 0.00 0.00 0.00 9 1020.0
20260510150153 80 340 0.0 5.0 0.00 0.00 0.00 9 1020.0
20260510145654 79 334 0.0 3.0 0.00 0.00 0.00 11 1020.0
20260510145154 79 334 1.0 4.0 0.00 0.00 0.00 9 1019.9
20260510144654 78 329 1.0 4.0 0.00 0.00 0.00 10 1020.0
20260510144152 78 331 1.0 3.0 0.00 0.00 0.00 11 1019.9
20260510143150 78 315 1.0 4.0 0.00 0.00 0.00 11 1019.8
20260510142649 77 339 0.0 0.0 0.00 0.00 0.00 12 1019.8
20260510141646 77 339 0.0 3.0 0.00 0.00 0.00 12 1019.7
20260510141145 76 339 1.0 4.0 0.00 0.00 0.00 13 1019.7
20260510140644 76 336 1.0 4.0 0.00 0.00 0.00 13 1019.6
20260510140144 74 333 1.0 4.0 0.00 0.00 0.00 13 1019.4
20260510135644 73 333 1.0 3.0 0.00 0.00 0.00 14 1019.4
20260510135144 72 316 1.0 3.0 0.00 0.00 0.00 14 1019.4
20260510134643 71 319 1.0 3.0 0.00 0.00 0.00 14 1019.3
20260510134141 71 298 0.0 2.0 0.00 0.00 0.00 14 1019.3
20260510133642 71 334 0.0 2.0 0.00 0.00 0.00 15 1019.3
20260510133141 70 320 0.0 1.0 0.00 0.00 0.00 15 1019.2
20260510132642 70 290 0.0 2.0 0.00 0.00 0.00 15 1019.2
20260510132142 69 286 0.0 3.0 0.00 0.00 0.00 15 1019.1
20260510131641 69 325 1.0 3.0 0.00 0.00 0.00 14 1019.0
20260510131141 69 255 1.0 3.0 0.00 0.00 0.00 14 1019.0
20260510130642 68 257 0.0 2.0 0.00 0.00 0.00 15 1018.9
20260510130142 68 282 1.0 3.0 0.00 0.00 0.00 15 1018.9
20260510125641 68 290 1.0 4.0 0.00 0.00 0.00 15 1018.8
20260510125142 68 304 1.0 4.0 0.00 0.00 0.00 15 1018.8
20260510124141 68 254 2.0 3.0 0.00 0.00 0.00 15 1018.6
20260510123642 68 262 1.0 3.0 0.00 0.00 0.00 16 1018.5
20260510123142 67 246 1.0 3.0 0.00 0.00 0.00 17 1018.5
20260510122641 67 250 1.0 2.0 0.00 0.00 0.00 17 1018.4
20260510122142 67 263 1.0 2.0 0.00 0.00 0.00 18 1018.3
20260510121642 67 255 2.0 4.0 0.00 0.00 0.00 19 1018.3
20260510121142 67 259 2.0 4.0 0.00 0.00 0.00 19 1018.3
20260510120641 67 269 2.0 4.0 0.00 0.00 0.00 19 1018.3
20260510120142 66 273 1.0 4.0 0.00 0.00 0.00 20 1018.2
20260510115642 66 239 0.0 2.0 0.00 0.00 0.00 20 1018.2
20260510115142 66 249 0.0 2.0 0.00 0.00 0.00 20 1018.2
20260510114641 65 256 1.0 2.0 0.00 0.00 0.00 21 1018.3
20260510114142 65 261 1.0 2.0 0.00 0.00 0.00 21 1018.3
20260510113643 65 256 1.0 2.0 0.00 0.00 0.00 21 1018.2
20260510113142 65 254 1.0 2.0 0.00 0.00 0.00 20 1018.1
20260510112641 66 262 1.0 2.0 0.00 0.00 0.00 20 1018.1
20260510112141 67 270 0.0 2.0 0.00 0.00 0.00 19 1018.0
20260510111641 67 265 1.0 2.0 0.00 0.00 0.00 19 1018.0
20260510111142 68 250 1.0 2.0 0.00 0.00 0.00 19 1017.9
20260510110643 68 209 1.0 2.0 0.00 0.00 0.00 19 1017.9
20260510110142 67 185 1.0 4.0 0.00 0.00 0.00 20 1017.9
20260510105641 67 185 2.0 4.0 0.00 0.00 0.00 20 1017.9
20260510105142 67 164 2.0 3.0 0.00 0.00 0.00 20 1017.9
20260510104642 67 192 1.0 3.0 0.00 0.00 0.00 20 1017.7
20260510104141 68 177 0.0 3.0 0.00 0.00 0.00 19 1017.6
20260510103641 69 256 0.0 0.0 0.00 0.00 0.00 18 1017.6
20260510103142 70 256 0.0 1.0 0.00 0.00 0.00 17 1017.5
20260510102139 71 255 1.0 2.0 0.00 0.00 0.00 17 1017.3
20260510101139 70 257 1.0 3.0 0.00 0.00 0.00 18 1017.3
20260510100640 70 253 1.0 3.0 0.00 0.00 0.00 18 1017.3
20260510100139 70 258 1.0 3.0 0.00 0.00 0.00 18 1017.3
20260510095640 70 258 1.0 2.0 0.00 0.00 0.00 18 1017.4
20260510091140 71 257 2.0 3.0 0.00 0.00 0.00 18 1017.3
20260510090639 71 260 1.0 3.0 0.00 0.00 0.00 17 1017.2
20260510085640 72 252 2.0 4.0 0.00 0.00 0.00 17 1017.2
20260510085140 71 213 2.0 5.0 0.00 0.00 0.00 17 1017.2
20260510084640 71 188 2.0 5.0 0.00 0.00 0.00 18 1017.2
20260510084139 70 232 1.0 3.0 0.00 0.00 0.00 18 1017.3
20260510083639 70 250 1.0 3.0 0.00 0.00 0.00 18 1017.5
20260510083140 69 209 1.0 3.0 0.00 0.00 0.00 18 1017.5
20260510082636 70 256 1.0 3.0 0.00 0.00 0.00 18 1017.6
20260510081635 70 270 0.0 2.0 0.00 0.00 0.00 18 1017.5
20260510081136 72 270 1.0 6.0 0.00 0.00 0.00 17 1017.4
20260510080636 73 324 1.0 6.0 0.00 0.00 0.00 16 1017.2
20260510074631 74 180 1.0 2.0 0.00 0.00 0.00 16 1016.5
20260510073631 74 203 2.0 3.0 0.00 0.00 0.00 16 1016.6
20260510073131 73 210 2.0 5.0 0.00 0.00 0.00 16 1016.6
20260510072131 72 188 2.0 4.0 0.00 0.00 0.00 17 1016.8
20260510071629 72 206 1.0 2.0 0.00 0.00 0.00 17 1016.9
20260510071127 72 196 1.0 2.0 0.00 0.00 0.00 17 1016.9
20260510070626 72 265 1.0 2.0 0.00 0.00 0.00 17 1017.1
20260510070126 73 265 0.0 2.0 0.00 0.00 0.00 16 1016.9
20260510065623 73 323 0.0 0.0 0.00 0.00 0.00 16 1017.1
20260510065122 74 5 0.0 2.0 0.00 0.00 0.00 16 1016.8
20260510064621 74 346 0.0 2.0 0.00 0.00 0.00 16 1016.7
20260510064120 74 115 0.0 3.0 0.00 0.00 0.00 16 1016.4
20260510063618 74 121 1.0 3.0 0.00 0.00 0.00 16 1016.3
20260510063121 74 182 1.0 3.0 0.00 0.00 0.00 16 1016.3
20260510062616 75 170 1.0 3.0 0.00 0.00 0.00 15 1016.3
20260510062114 76 150 0.0 2.0 0.00 0.00 0.00 15 1016.4
20260510061614 77 146 0.0 1.0 0.00 0.00 0.00 14 1016.3
20260510061112 77 146 1.0 4.0 0.00 0.00 0.00 14 1016.4
20260510060612 78 146 1.0 4.0 0.00 0.00 0.00 13 1016.3
20260510060111 79 142 2.0 5.0 0.00 0.00 0.00 13 1016.2
20260510055608 80 187 2.0 5.0 0.00 0.00 0.00 12 1016.0
20260510055108 80 187 2.0 6.0 0.00 0.00 0.00 12 1016.0
20260510054609 80 208 2.0 6.0 0.00 0.00 0.00 12 1015.8
20260510054108 80 221 2.0 5.0 0.00 0.00 0.00 12 1015.8
20260510053608 80 246 2.0 5.0 0.00 0.00 0.00 12 1015.8
20260510053109 80 265 3.0 6.0 0.00 0.00 0.00 12 1015.8
20260510052608 80 199 3.0 6.0 0.00 0.00 0.00 12 1015.8
20260510052107 80 219 3.0 5.0 0.00 0.00 0.00 12 1015.8
20260510051106 80 244 3.0 7.0 0.00 0.00 0.00 12 1015.7
20260510050604 80 238 4.0 7.0 0.00 0.00 0.00 11 1015.8
20260510044602 81 239 4.0 8.0 0.00 0.00 0.00 11 1015.6
20260510043602 81 223 4.0 7.0 0.00 0.00 0.00 12 1015.6
20260510043103 81 200 4.0 8.0 0.00 0.00 0.00 12 1015.6
20260510042603 81 191 4.0 12.0 0.00 0.00 0.00 12 1015.5
20260510042100 81 214 5.0 12.0 0.00 0.00 0.00 12 1015.5
20260510041600 81 200 5.0 9.0 0.00 0.00 0.00 12 1015.4
20260510041100 81 232 5.0 8.0 0.00 0.00 0.00 12 1015.2
20260510040600 81 232 4.0 8.0 0.00 0.00 0.00 12 1015.1
20260510040100 81 231 4.0 8.0 0.00 0.00 0.00 12 1015.0
20260510035600 81 246 4.0 8.0 0.00 0.00 0.00 12 1015.0
20260510035100 82 209 4.0 8.0 0.00 0.00 0.00 12 1015.0
20260510034600 82 198 5.0 10.0 0.00 0.00 0.00 12 1014.9
20260510034058 82 194 5.0 10.0 0.00 0.00 0.00 12 1014.9
20260510033558 82 234 4.0 9.0 0.00 0.00 0.00 12 1014.8
20260510033058 82 213 4.0 9.0 0.00 0.00 0.00 12 1014.7
20260510032559 82 223 4.0 10.0 0.00 0.00 0.00 12 1014.7
20260510032057 82 210 5.0 10.0 0.00 0.00 0.00 12 1014.6
20260510031558 82 240 5.0 10.0 0.00 0.00 0.00 12 1014.6
20260510031058 82 259 4.0 8.0 0.00 0.00 0.00 12 1014.6
20260510030056 82 267 4.0 8.0 0.00 0.00 0.00 12 1014.4
20260510025056 82 263 4.0 7.0 0.00 0.00 0.00 12 1014.3
20260510024556 83 219 4.0 9.0 0.00 0.00 0.00 12 1014.2
20260510024056 83 249 4.0 9.0 0.00 0.00 0.00 12 1014.1
20260510023556 83 252 4.0 7.0 0.00 0.00 0.00 12 1014.0
20260510023056 83 215 4.0 8.0 0.00 0.00 0.00 12 1013.9
20260510022556 83 238 3.0 8.0 0.00 0.00 0.00 12 1013.9
20260510022057 83 214 3.0 7.0 0.00 0.00 0.00 12 1013.9
20260510021556 83 249 4.0 8.0 0.00 0.00 0.00 12 1013.8
20260510021056 83 222 3.0 8.0 0.00 0.00 0.00 12 1013.9
20260510020056 84 204 3.0 6.0 0.00 0.00 0.00 12 1013.8
20260510015556 84 226 3.0 6.0 0.00 0.00 0.00 12 1013.8
20260510015056 84 197 4.0 8.0 0.00 0.00 0.00 12 1013.7
20260510014556 84 199 4.0 8.0 0.00 0.00 0.00 12 1013.5
20260510014056 84 204 3.0 8.0 0.00 0.00 0.00 12 1013.5
20260510013556 84 230 3.0 7.0 0.00 0.00 0.00 11 1013.5
20260510013056 85 209 3.0 5.0 0.00 0.00 0.00 11 1013.4
20260510012556 85 203 2.0 5.0 0.00 0.00 0.00 11 1013.4
20260510012054 85 221 2.0 7.0 0.00 0.00 0.00 11 1013.4
20260510011052 86 221 2.0 5.0 0.00 0.00 0.00 11 1013.3
20260510010552 87 229 2.0 6.0 0.00 0.00 0.00 11 1013.3
20260510010053 87 234 2.0 6.0 0.00 0.00 0.00 11 1013.3
20260510005052 87 267 2.0 6.0 0.00 0.00 0.00 11 1013.2
20260510004548 88 242 3.0 7.0 0.00 0.00 0.00 10 1013.3
20260510004046 88 244 3.0 8.0 0.00 0.00 0.00 10 1013.3
20260510003546 89 257 2.0 8.0 0.00 0.00 0.00 10 1013.4
20260510002546 90 246 3.0 6.0 0.00 0.00 0.00 10 1013.3
20260510002047 90 321 2.0 6.0 0.00 0.00 0.00 10 1013.4
20260510000546 90 198 4.0 12.0 0.00 0.00 0.00 10 1013.4
20260510000044 89 210 4.0 12.0 0.00 0.00 0.00 10 1013.4
20260509235544 90 153 3.0 9.0 0.00 0.00 0.00 10 1013.3
20260509235044 90 204 3.0 9.0 0.00 0.00 0.00 9 1013.4
20260509234544 91 197 3.0 8.0 0.00 0.00 0.00 10 1013.4
20260509234044 91 255 3.0 8.0 0.00 0.00 0.00 9 1013.5
20260509233544 92 251 3.0 8.0 0.00 0.00 0.00 10 1013.4
20260509232538 93 244 3.0 9.0 0.00 0.00 0.00 9 1013.4
20260509232038 94 290 3.0 7.0 0.00 0.00 0.00 9 1013.4
20260509231538 93 275 3.0 7.0 0.00 0.00 0.00 9 1013.4
20260509231038 93 242 2.0 5.0 0.00 0.00 0.00 9 1013.4
20260509230035 93 139 3.0 7.0 0.00 0.00 0.00 9 1013.5
20260509225536 92 173 3.0 7.0 0.00 0.00 0.00 10 1013.4
20260509225036 92 133 3.0 8.0 0.00 0.00 0.00 11 1013.5
20260509224536 91 135 3.0 8.0 0.00 0.00 0.00 11 1013.5
20260509224039 90 129 3.0 7.0 0.00 0.00 0.00 12 1013.7
20260509223532 89 171 4.0 8.0 0.00 0.00 0.00 12 1013.8
20260509223032 88 140 4.0 8.0 0.00 0.00 0.00 12 1013.9
20260509222532 89 140 4.0 8.0 0.00 0.00 0.00 11 1014.0
20260509222035 90 204 4.0 11.0 0.00 0.00 0.00 10 1014.1
20260509221532 91 182 5.0 11.0 0.00 0.00 0.00 11 1014.1
20260509221032 91 188 6.0 11.0 0.00 0.00 0.00 11 1014.0
20260509220532 91 125 5.0 11.0 0.00 0.00 0.00 11 1014.0
20260509220031 90 134 4.0 10.0 0.00 0.00 0.00 12 1014.1
20260509215532 89 165 2.0 10.0 0.00 0.00 0.00 12 1014.3
20260509215033 89 150 0.0 2.0 0.00 0.00 0.00 12 1014.3
20260509214532 88 134 0.0 2.0 0.00 0.00 0.00 13 1014.4
20260509214032 87 134 3.0 6.0 0.00 0.00 0.00 11 1014.6
20260509213530 88 159 4.0 9.0 0.00 0.00 0.00 11 1014.8
20260509213028 89 190 2.0 9.0 0.00 0.00 0.00 11 1014.8
20260509212528 90 193 2.0 7.0 0.00 0.00 0.00 11 1014.8
20260509212028 91 167 3.0 7.0 0.00 0.00 0.00 11 1014.8
20260509211528 91 136 2.0 6.0 0.00 0.00 0.00 11 1014.8
20260509211028 89 126 2.0 4.0 0.00 0.00 0.00 11 1014.8
20260509210528 89 115 2.0 4.0 0.00 0.00 0.00 11 1014.9
20260509210026 90 104 1.0 3.0 0.00 0.00 0.00 11 1015.1
20260509205527 91 122 1.0 6.0 0.00 0.00 0.00 10 1015.2
20260509205024 91 101 2.0 6.0 0.00 0.00 0.00 10 1015.2
20260509204524 91 109 2.0 5.0 0.00 0.00 0.00 11 1015.1
20260509204018 92 146 2.0 6.0 0.00 0.00 0.00 11 1015.4
20260509203518 92 99 1.0 6.0 0.00 0.00 0.00 10 1015.5
20260509203018 92 94 1.0 3.0 0.00 0.00 0.00 10 1015.5
20260509202516 91 32 1.0 4.0 0.00 0.00 0.00 10 1015.5
20260509202014 92 126 1.0 4.0 0.00 0.00 0.00 11 1015.6
20260509201013 91 65 1.0 4.0 0.00 0.00 0.00 10 1015.8
20260509200513 91 117 1.0 3.0 0.00 0.00 0.00 10 1015.8
20260509200014 91 121 1.0 4.0 0.00 0.00 0.00 10 1015.9
20260509195514 92 138 1.0 4.0 0.00 0.00 0.00 9 1015.9
20260509195016 92 89 2.0 6.0 0.00 0.00 0.00 9 1016.0
20260509194513 93 80 2.0 6.0 0.00 0.00 0.00 9 1016.0
20260509194013 93 15 2.0 5.0 0.00 0.00 0.00 9 1016.0
20260509192512 94 92 2.0 3.0 0.00 0.00 0.00 9 1016.2
20260509192012 94 84 1.0 3.0 0.00 0.00 0.00 9 1016.4
20260509191010 94 78 1.0 9.0 0.00 0.00 0.00 10 1016.6
20260509190513 93 84 1.0 9.0 0.00 0.00 0.00 10 1016.5